TimeCST,TemperatureF,Dew PointF,Humidity,Sea Level PressureIn,VisibilityMPH,Wind Direction,Wind SpeedMPH,Gust SpeedMPH,PrecipitationIn,Events,Conditions,WindDirDegrees,DateUTC
12:53 AM,21.0,19.0,92,29.95,10.0,Calm,Calm,-,N/A,,Clear,0,2013-02-17 06:53:00
1:53 AM,21.9,21.0,96,29.95,10.0,Calm,Calm,-,N/A,,Clear,0,2013-02-17 07:53:00
2:53 AM,21.0,18.0,88,29.93,10.0,Calm,Calm,-,N/A,,Clear,0,2013-02-17 08:53:00
3:53 AM,18.0,15.1,88,29.90,10.0,Calm,Calm,-,N/A,,Clear,0,2013-02-17 09:53:00
4:53 AM,18.0,16.0,92,29.87,10.0,SW,3.5,-,N/A,,Clear,220,2013-02-17 10:53:00
5:53 AM,18.0,15.1,88,29.87,10.0,Calm,Calm,-,N/A,,Clear,0,2013-02-17 11:53:00
6:53 AM,18.0,16.0,92,29.87,10.0,Calm,Calm,-,N/A,,Clear,0,2013-02-17 12:53:00
7:53 AM,21.0,18.0,88,29.87,10.0,Calm,Calm,-,N/A,,Clear,0,2013-02-17 13:53:00
8:53 AM,33.1,27.0,78,29.83,10.0,SSW,3.5,-,N/A,,Clear,200,2013-02-17 14:53:00
9:53 AM,39.9,27.0,60,29.80,10.0,SW,6.9,-,N/A,,Clear,230,2013-02-17 15:53:00
10:53 AM,48.9,24.1,38,29.77,10.0,SW,10.4,-,N/A,,Clear,220,2013-02-17 16:53:00
11:53 AM,57.0,21.9,26,29.70,10.0,SSW,20.7,28.8,N/A,,Clear,210,2013-02-17 17:53:00
12:53 PM,57.9,21.0,24,29.67,10.0,SW,19.6,27.6,N/A,,Clear,220,2013-02-17 18:53:00
1:53 PM,60.1,17.1,19,29.63,10.0,SW,20.7,-,N/A,,Clear,230,2013-02-17 19:53:00
2:53 PM,62.1,12.9,15,29.60,10.0,WSW,19.6,28.8,N/A,,Clear,240,2013-02-17 20:53:00
3:53 PM,61.0,7.0,12,29.59,10.0,West,12.7,23.0,N/A,,Clear,260,2013-02-17 21:53:00
4:53 PM,57.0,14.0,18,29.58,10.0,WSW,5.8,-,N/A,,Clear,240,2013-02-17 22:53:00
5:53 PM,52.0,16.0,24,29.60,10.0,West,3.5,-,N/A,,Clear,260,2013-02-17 23:53:00
6:53 PM,37.0,18.0,46,29.62,10.0,Calm,Calm,-,N/A,,Clear,0,2013-02-18 00:53:00
7:53 PM,36.0,18.0,48,29.62,10.0,NNW,4.6,-,N/A,,Clear,340,2013-02-18 01:53:00
8:53 PM,39.0,19.0,45,29.60,10.0,North,8.1,-,N/A,,Clear,360,2013-02-18 02:53:00
9:53 PM,45.0,19.9,37,29.60,10.0,North,19.6,-,N/A,,Clear,350,2013-02-18 03:53:00
11:53 PM,39.9,28.9,65,29.61,10.0,North,28.8,38.0,N/A,,Clear,350,2013-02-18 05:53:00